| time (UTC) | temp F | wind direction | speed knots | gust knots | rain 1hr in | rain 24hr in | rain mn in | humidity % | barometer mb |
| 20260505024350 | 57 | 107 | 2.6 | 4.3 | 0.00 | 0.00 | 0.00 | 55 | 1010.1 |
| 20260505023847 | 57 | 128 | 3.5 | 3.5 | 0.00 | 0.00 | 0.00 | 55 | 1010.1 |
| 20260505023344 | 57 | 127 | 2.6 | 4.3 | 0.00 | 0.00 | 0.00 | 54 | 1010.1 |
| 20260505022842 | 58 | 130 | 3.5 | 4.3 | 0.00 | 0.00 | 0.00 | 54 | 1010.1 |
| 20260505022338 | 58 | 118 | 3.5 | 6.1 | 0.00 | 0.00 | 0.00 | 53 | 1010.6 |
| 20260505021836 | 58 | 149 | 3.5 | 4.3 | 0.00 | 0.00 | 0.00 | 53 | 1010.4 |
| 20260505021332 | 58 | 131 | 3.5 | 4.3 | 0.00 | 0.00 | 0.00 | 52 | 1010.4 |
| 20260505020828 | 58 | 124 | 3.5 | 5.2 | 0.00 | 0.00 | 0.00 | 52 | 1010.4 |
| 20260505020324 | 58 | 130 | 4.3 | 5.2 | 0.00 | 0.00 | 0.00 | 52 | 1010.2 |
| 20260505015820 | 59 | 133 | 2.6 | 6.1 | 0.00 | 0.00 | 0.00 | 51 | 1010.1 |
| 20260505015318 | 59 | 125 | 3.5 | 4.3 | 0.00 | 0.00 | 0.00 | 51 | 1010.1 |
| 20260505014815 | 59 | 119 | 2.6 | 4.3 | 0.00 | 0.00 | 0.00 | 51 | 1010.0 |
| 20260505014312 | 59 | 126 | 2.6 | 5.2 | 0.00 | 0.00 | 0.00 | 50 | 1010.0 |
| 20260505013808 | 59 | 127 | 2.6 | 4.3 | 0.00 | 0.00 | 0.00 | 50 | 1009.9 |
| 20260505013306 | 59 | 133 | 2.6 | 3.5 | 0.00 | 0.00 | 0.00 | 50 | 1010.0 |
| 20260505012804 | 59 | 71 | 1.7 | 4.3 | 0.00 | 0.00 | 0.00 | 49 | 1009.8 |
| 20260505012301 | 60 | 128 | 2.6 | 7.0 | 0.00 | 0.00 | 0.00 | 48 | 1009.9 |
| 20260505011757 | 60 | 134 | 3.5 | 4.3 | 0.00 | 0.00 | 0.00 | 48 | 1009.9 |
| 20260505011254 | 60 | 156 | 4.3 | 5.2 | 0.00 | 0.00 | 0.00 | 47 | 1009.8 |
| 20260505010750 | 60 | 122 | 2.6 | 6.1 | 0.00 | 0.00 | 0.00 | 47 | 1009.7 |
| 20260505010246 | 60 | 125 | 4.3 | 6.1 | 0.00 | 0.00 | 0.00 | 46 | 1009.5 |
| 20260505005743 | 61 | 136 | 3.5 | 5.2 | 0.00 | 0.00 | 0.00 | 46 | 1009.6 |
| 20260505005240 | 61 | 142 | 6.1 | 7.0 | 0.00 | 0.00 | 0.00 | 46 | 1009.6 |
| 20260505004737 | 61 | 137 | 4.3 | 7.0 | 0.00 | 0.00 | 0.00 | 45 | 1009.3 |
| 20260505004233 | 61 | 148 | 4.3 | 6.1 | 0.00 | 0.00 | 0.00 | 45 | 1009.1 |
| 20260505003730 | 61 | 135 | 4.3 | 6.1 | 0.00 | 0.00 | 0.00 | 45 | 1009.3 |
| 20260505003228 | 62 | 98 | 2.6 | 5.2 | 0.00 | 0.00 | 0.00 | 45 | 1009.1 |
| 20260505002724 | 62 | 146 | 5.2 | 6.1 | 0.00 | 0.00 | 0.00 | 44 | 1009.0 |
| 20260505002222 | 62 | 128 | 4.3 | 7.8 | 0.00 | 0.00 | 0.00 | 44 | 1008.8 |
| 20260505001719 | 62 | 139 | 4.3 | 5.2 | 0.00 | 0.00 | 0.00 | 44 | 1008.7 |
| 20260505001217 | 62 | 127 | 3.5 | 8.7 | 0.00 | 0.00 | 0.00 | 44 | 1008.6 |
| 20260505000714 | 62 | 130 | 2.6 | 4.3 | 0.00 | 0.00 | 0.00 | 44 | 1008.6 |
| 20260505000211 | 63 | 131 | 4.3 | 7.8 | 0.00 | 0.00 | 0.00 | 43 | 1008.5 |
| 20260504235708 | 63 | 147 | 3.5 | 5.2 | 0.00 | 0.00 | 0.00 | 43 | 1008.4 |
| 20260504235204 | 63 | 126 | 3.5 | 4.3 | 0.00 | 0.00 | 0.00 | 42 | 1008.1 |
| 20260504234701 | 64 | 132 | 2.6 | 7.8 | 0.00 | 0.00 | 0.00 | 41 | 1008.2 |
| 20260504234158 | 64 | 126 | 3.5 | 8.7 | 0.00 | 0.00 | 0.00 | 41 | 1007.9 |
| 20260504233654 | 64 | 168 | 4.3 | 7.0 | 0.00 | 0.00 | 0.00 | 41 | 1008.2 |
| 20260504233150 | 64 | 126 | 2.6 | 8.7 | 0.00 | 0.00 | 0.00 | 40 | 1007.9 |
| 20260504232648 | 65 | 158 | 5.2 | 5.2 | 0.00 | 0.00 | 0.00 | 40 | 1007.9 |
| 20260504232145 | 65 | 121 | 4.3 | 8.7 | 0.00 | 0.00 | 0.00 | 39 | 1007.8 |
| 20260504231642 | 65 | 115 | 4.3 | 7.8 | 0.00 | 0.00 | 0.00 | 39 | 1007.6 |
| 20260504231138 | 66 | 119 | 3.5 | 9.6 | 0.00 | 0.00 | 0.00 | 38 | 1007.5 |
| 20260504230634 | 66 | 130 | 3.5 | 7.0 | 0.00 | 0.00 | 0.00 | 38 | 1007.6 |
| 20260504230133 | 67 | 191 | 2.6 | 7.8 | 0.00 | 0.00 | 0.00 | 37 | 1007.6 |
| 20260504225631 | 67 | 146 | 4.3 | 7.0 | 0.00 | 0.00 | 0.00 | 36 | 1007.2 |
| 20260504225127 | 67 | 157 | 4.3 | 4.3 | 0.00 | 0.00 | 0.00 | 36 | 1007.3 |
| 20260504224624 | 67 | 137 | 2.6 | 6.1 | 0.00 | 0.00 | 0.00 | 36 | 1007.2 |
| 20260504224120 | 68 | 116 | 3.5 | 6.1 | 0.00 | 0.00 | 0.00 | 35 | 1007.1 |
| 20260504223617 | 68 | 131 | 4.3 | 5.2 | 0.00 | 0.00 | 0.00 | 34 | 1007.0 |
| 20260504223113 | 69 | 136 | 4.3 | 8.7 | 0.00 | 0.00 | 0.00 | 32 | 1007.1 |
| 20260504222610 | 70 | 111 | 1.7 | 7.0 | 0.00 | 0.00 | 0.00 | 30 | 1006.8 |
| 20260504222108 | 71 | 116 | 5.2 | 5.2 | 0.00 | 0.00 | 0.00 | 29 | 1006.9 |
| 20260504221605 | 71 | 304 | 2.6 | 4.3 | 0.00 | 0.00 | 0.00 | 28 | 1006.9 |
| 20260504221101 | 72 | 209 | 0.0 | 7.0 | 0.00 | 0.00 | 0.00 | 28 | 1006.9 |
| 20260504220558 | 71 | 139 | 2.6 | 5.2 | 0.00 | 0.00 | 0.00 | 28 | 1006.8 |
| 20260504220055 | 71 | 159 | 2.6 | 3.5 | 0.00 | 0.00 | 0.00 | 29 | 1006.8 |
| 20260504215551 | 71 | 142 | 3.5 | 5.2 | 0.00 | 0.00 | 0.00 | 29 | 1007.0 |
| 20260504215049 | 72 | 157 | 4.3 | 5.2 | 0.00 | 0.00 | 0.00 | 28 | 1007.1 |
| 20260504214544 | 73 | 167 | 5.2 | 5.2 | 0.00 | 0.00 | 0.00 | 27 | 1006.8 |
| 20260504214041 | 73 | 138 | 5.2 | 5.2 | 0.00 | 0.00 | 0.00 | 27 | 1006.9 |
| 20260504213538 | 72 | 161 | 2.6 | 3.5 | 0.00 | 0.00 | 0.00 | 27 | 1006.7 |
| 20260504213035 | 74 | 261 | 3.5 | 4.3 | 0.00 | 0.00 | 0.00 | 26 | 1006.9 |
| 20260504212531 | 74 | 219 | 1.7 | 5.2 | 0.00 | 0.00 | 0.00 | 27 | 1006.9 |
| 20260504212028 | 73 | 144 | 4.3 | 5.2 | 0.00 | 0.00 | 0.00 | 26 | 1006.9 |
| 20260504211525 | 72 | 159 | 3.5 | 7.0 | 0.00 | 0.00 | 0.00 | 27 | 1006.8 |
| 20260504211022 | 73 | 271 | 1.7 | 5.2 | 0.00 | 0.00 | 0.00 | 26 | 1006.8 |
| 20260504210519 | 74 | 159 | 1.7 | 3.5 | 0.00 | 0.00 | 0.00 | 26 | 1006.9 |
| 20260504210016 | 73 | 115 | 2.6 | 4.3 | 0.00 | 0.00 | 0.00 | 26 | 1007.1 |
| 20260504205514 | 73 | 162 | 0.9 | 5.2 | 0.00 | 0.00 | 0.00 | 26 | 1006.9 |
| 20260504205012 | 73 | 151 | 7.0 | 7.8 | 0.00 | 0.00 | 0.00 | 26 | 1006.8 |
| 20260504204509 | 72 | 139 | 2.6 | 4.3 | 0.00 | 0.00 | 0.00 | 27 | 1007.0 |
| 20260504204008 | 72 | 140 | 5.2 | 7.8 | 0.00 | 0.00 | 0.00 | 27 | 1007.0 |
| 20260504203506 | 73 | 135 | 4.3 | 7.8 | 0.00 | 0.00 | 0.00 | 27 | 1006.8 |
| 20260504203002 | 74 | 215 | 3.5 | 7.0 | 0.00 | 0.00 | 0.00 | 25 | 1006.7 |
| 20260504202458 | 74 | 182 | 1.7 | 10.4 | 0.00 | 0.00 | 0.00 | 26 | 1006.6 |
| 20260504201955 | 74 | 158 | 3.5 | 4.3 | 0.00 | 0.00 | 0.00 | 26 | 1006.9 |
| 20260504201452 | 73 | 205 | 1.7 | 5.2 | 0.00 | 0.00 | 0.00 | 26 | 1006.9 |
| 20260504200950 | 73 | 292 | 6.1 | 10.4 | 0.00 | 0.00 | 0.00 | 26 | 1006.9 |
| 20260504200446 | 73 | 254 | 2.6 | 5.2 | 0.00 | 0.00 | 0.00 | 25 | 1006.9 |
| 20260504195943 | 72 | 239 | 2.6 | 4.3 | 0.00 | 0.00 | 0.00 | 26 | 1006.9 |
| 20260504195439 | 72 | 112 | 1.7 | 9.6 | 0.00 | 0.00 | 0.00 | 27 | 1007.1 |
| 20260504194936 | 72 | 154 | 3.5 | 7.0 | 0.00 | 0.00 | 0.00 | 26 | 1007.2 |
| 20260504194432 | 71 | 93 | 3.5 | 7.8 | 0.00 | 0.00 | 0.00 | 26 | 1007.1 |
| 20260504193928 | 71 | 133 | 3.5 | 11.3 | 0.00 | 0.00 | 0.00 | 26 | 1007.0 |
| 20260504193425 | 72 | 126 | 0.0 | 7.8 | 0.00 | 0.00 | 0.00 | 26 | 1007.0 |
| 20260504192924 | 71 | 155 | 1.7 | 7.0 | 0.00 | 0.00 | 0.00 | 26 | 1007.1 |
| 20260504192421 | 71 | 146 | 4.3 | 9.6 | 0.00 | 0.00 | 0.00 | 27 | 1007.0 |
| 20260504191920 | 71 | 158 | 6.1 | 7.8 | 0.00 | 0.00 | 0.00 | 25 | 1007.2 |
| 20260504191417 | 72 | 268 | 1.7 | 7.0 | 0.00 | 0.00 | 0.00 | 25 | 1007.2 |
| 20260504190912 | 71 | 252 | 0.9 | 7.0 | 0.00 | 0.00 | 0.00 | 27 | 1007.2 |
| 20260504190408 | 71 | 147 | 3.5 | 5.2 | 0.00 | 0.00 | 0.00 | 27 | 1007.2 |
| 20260504185905 | 70 | 162 | 1.7 | 7.8 | 0.00 | 0.00 | 0.00 | 27 | 1007.4 |
| 20260504185402 | 70 | 116 | 3.5 | 11.3 | 0.00 | 0.00 | 0.00 | 26 | 1007.3 |
| 20260504184858 | 71 | 152 | 5.2 | 9.6 | 0.00 | 0.00 | 0.00 | 25 | 1007.5 |
| 20260504184354 | 71 | 108 | 1.7 | 5.2 | 0.00 | 0.00 | 0.00 | 27 | 1007.6 |
| 20260504183850 | 70 | 227 | 2.6 | 10.4 | 0.00 | 0.00 | 0.00 | 26 | 1007.5 |
| 20260504183348 | 70 | 145 | 4.3 | 6.1 | 0.00 | 0.00 | 0.00 | 26 | 1007.5 |
| 20260504182845 | 70 | 157 | 4.3 | 8.7 | 0.00 | 0.00 | 0.00 | 25 | 1007.6 |
| 20260504182343 | 69 | 155 | 6.1 | 7.0 | 0.00 | 0.00 | 0.00 | 27 | 1007.8 |
| 20260504181839 | 69 | 141 | 7.8 | 8.7 | 0.00 | 0.00 | 0.00 | 26 | 1007.6 |
| 20260504181337 | 70 | 191 | 1.7 | 7.0 | 0.00 | 0.00 | 0.00 | 26 | 1007.6 |
| 20260504180835 | 69 | 256 | 4.3 | 7.8 | 0.00 | 0.00 | 0.00 | 27 | 1007.7 |
| 20260504180333 | 69 | 164 | 5.2 | 11.3 | 0.00 | 0.00 | 0.00 | 26 | 1007.8 |
| 20260504175832 | 69 | 157 | 7.0 | 7.8 | 0.00 | 0.00 | 0.00 | 27 | 1007.7 |
| 20260504175328 | 70 | 127 | 8.7 | 9.6 | 0.00 | 0.00 | 0.00 | 26 | 1007.5 |
| 20260504174826 | 69 | 202 | 2.6 | 7.8 | 0.00 | 0.00 | 0.00 | 28 | 1007.8 |
| 20260504174323 | 69 | 120 | 4.3 | 9.6 | 0.00 | 0.00 | 0.00 | 27 | 1007.6 |
| 20260504173820 | 69 | 163 | 2.6 | 8.7 | 0.00 | 0.00 | 0.00 | 27 | 1007.9 |
| 20260504173317 | 69 | 238 | 5.2 | 7.8 | 0.00 | 0.00 | 0.00 | 28 | 1008.3 |
| 20260504172814 | 69 | 293 | 2.6 | 5.2 | 0.00 | 0.00 | 0.00 | 27 | 1008.0 |
| 20260504172310 | 69 | 150 | 6.1 | 7.0 | 0.00 | 0.00 | 0.00 | 28 | 1008.3 |
| 20260504171806 | 68 | 192 | 1.7 | 5.2 | 0.00 | 0.00 | 0.00 | 28 | 1008.2 |
| 20260504171304 | 68 | 129 | 3.5 | 5.2 | 0.00 | 0.00 | 0.00 | 29 | 1008.2 |
| 20260504170801 | 67 | 114 | 2.6 | 7.0 | 0.00 | 0.00 | 0.00 | 29 | 1008.3 |
| 20260504170258 | 67 | 137 | 6.1 | 13.0 | 0.00 | 0.00 | 0.00 | 28 | 1008.1 |
| 20260504160216 | 66 | 193 | 4.3 | 8.7 | 0.00 | 0.00 | 0.00 | 31 | 1008.9 |
| 20260504151144 | 65 | 168 | 1.7 | 7.8 | 0.00 | 0.00 | 0.00 | 30 | 1009.3 |
| 20260504150641 | 64 | 200 | 1.7 | 6.1 | 0.00 | 0.00 | 0.00 | 32 | 1009.4 |
| 20260504150138 | 64 | 269 | 5.2 | 9.6 | 0.00 | 0.00 | 0.00 | 32 | 1009.2 |
| 20260504141107 | 62 | 240 | 5.2 | 7.8 | 0.00 | 0.00 | 0.00 | 35 | 1009.6 |
| 20260504140603 | 61 | 306 | 5.2 | 7.8 | 0.00 | 0.00 | 0.00 | 36 | 1009.8 |
| 20260504130527 | 57 | 144 | 1.7 | 3.5 | 0.00 | 0.00 | 0.00 | 43 | 1010.6 |
| 20260504110415 | 49 | 132 | 1.7 | 3.5 | 0.00 | 0.00 | 0.00 | 48 | 1010.7 |
| 20260504100332 | 47 | 140 | 2.6 | 5.2 | 0.00 | 0.00 | 0.00 | 50 | 1010.8 |
| 20260504081725 | 47 | 126 | 2.6 | 3.5 | 0.00 | 0.00 | 0.00 | 49 | 1010.9 |
| 20260504081221 | 47 | 123 | 2.6 | 2.6 | 0.00 | 0.00 | 0.00 | 49 | 1010.7 |
| 20260504080718 | 47 | 118 | 1.7 | 3.5 | 0.00 | 0.00 | 0.00 | 49 | 1010.8 |
| 20260504080215 | 47 | 114 | 2.6 | 2.6 | 0.00 | 0.00 | 0.00 | 48 | 1010.7 |
| 20260504070142 | 47 | 123 | 2.6 | 3.5 | 0.00 | 0.00 | 0.00 | 47 | 1010.4 |
| 20260504050531 | 46 | 128 | 1.7 | 2.6 | 0.00 | 0.00 | 0.00 | 46 | 1010.5 |
| 20260504045525 | 45 | 127 | 2.6 | 2.6 | 0.00 | 0.00 | 0.00 | 49 | 1010.2 |
| 20260504045020 | 45 | 94 | 1.7 | 3.5 | 0.00 | 0.00 | 0.00 | 49 | 1010.7 |
| 20260504044518 | 45 | 132 | 2.6 | 3.5 | 0.00 | 0.00 | 0.00 | 50 | 1010.5 |
| 20260504044014 | 44 | 132 | 1.7 | 3.5 | 0.00 | 0.00 | 0.00 | 49 | 1010.7 |
| 20260504043511 | 43 | 133 | 2.6 | 3.5 | 0.00 | 0.00 | 0.00 | 50 | 1010.7 |
| 20260504043009 | 43 | 138 | 1.7 | 2.6 | 0.00 | 0.00 | 0.00 | 52 | 1010.6 |
| 20260504042505 | 43 | 130 | 1.7 | 3.5 | 0.00 | 0.00 | 0.00 | 51 | 1010.6 |
| 20260504042003 | 43 | 122 | 1.7 | 2.6 | 0.00 | 0.00 | 0.00 | 53 | 1010.5 |
| 20260504041459 | 43 | 109 | 1.7 | 3.5 | 0.00 | 0.00 | 0.00 | 51 | 1010.4 |
| 20260504040954 | 43 | 138 | 2.6 | 2.6 | 0.00 | 0.00 | 0.00 | 51 | 1010.4 |
| 20260504040452 | 42 | 106 | 0.0 | 1.7 | 0.00 | 0.00 | 0.00 | 53 | 1010.2 |
| 20260504035948 | 42 | 74 | 1.7 | 1.7 | 0.00 | 0.00 | 0.00 | 54 | 1010.2 |
| 20260504035446 | 41 | 109 | 0.9 | 1.7 | 0.00 | 0.00 | 0.00 | 55 | 1009.9 |
| 20260504034942 | 41 | 84 | 1.7 | 1.7 | 0.00 | 0.00 | 0.00 | 56 | 1010.1 |
| 20260504034440 | 40 | 110 | 1.7 | 1.7 | 0.00 | 0.00 | 0.00 | 60 | 1010.2 |
| 20260504033937 | 40 | 105 | 1.7 | 1.7 | 0.00 | 0.00 | 0.00 | 59 | 1010.1 |
| 20260504033434 | 40 | 110 | 0.9 | 1.7 | 0.00 | 0.00 | 0.00 | 60 | 1010.0 |
| 20260504032931 | 39 | 125 | 0.9 | 1.7 | 0.00 | 0.00 | 0.00 | 61 | 1010.1 |
| 20260504032428 | 39 | 137 | 1.7 | 1.7 | 0.00 | 0.00 | 0.00 | 61 | 1010.2 |
| 20260504031925 | 39 | 124 | 0.9 | 2.6 | 0.00 | 0.00 | 0.00 | 62 | 1009.8 |
| 20260504031422 | 39 | 84 | 0.9 | 1.7 | 0.00 | 0.00 | 0.00 | 63 | 1010.1 |
| 20260504030919 | 39 | 132 | 1.7 | 1.7 | 0.00 | 0.00 | 0.00 | 61 | 1010.0 |
| 20260504030416 | 39 | 115 | 1.7 | 1.7 | 0.00 | 0.00 | 0.00 | 62 | 1010.0 |
| 20260504025912 | 40 | 144 | 1.7 | 1.7 | 0.00 | 0.00 | 0.00 | 60 | 1010.0 |
| 20260504025409 | 40 | 132 | 0.9 | 1.7 | 0.00 | 0.00 | 0.00 | 61 | 1009.9 |
| 20260504024906 | 40 | 122 | 0.9 | 1.7 | 0.00 | 0.00 | 0.00 | 58 | 1009.9 |